User: anonymous   Login
Location: NJAA Observatory
(40.6819°N, 74.8979°W)
Time: 23:53:55
(UTC-05:00)
Language:

Iridium 84 - Orbit

View from above orbital plane
View from above orbital plane
View from above satellite
View from above satellite

Ground track
Ground track

The orbit data is extracted from the following two-line orbital elements,

1 25530U 98066D   16344.37458125  .00000227  00000-0  74124-4 0  9990
2 25530  86.3974  69.3340 0002146  95.8971 264.2470 14.34219624949790
Epoch (UTC): 09 December 2016 08:59:23
Eccentricity: 0.0002146
inclination: 86.3974°
perigee height: 776 km
apogee height: 779 km
right ascension of ascending node: 69.3340°
argument of perigee: 95.8971°
revolutions per day: 14.34219624
mean anomaly at epoch: 264.2470°
orbit number at epoch: 94979

The dashed part of the orbit path shows where the satellite is in the earth's shadow,  

DLR